Location: Cicognara
(44.9500°N, 10.4667°E)
Time: 23:43:06
(UTC+00:00)

Cosmos 1844 Rocket - Pass Details

Date: 20 June 2021
Orbit: 823 x 846 km, 71.0° (Epoch: 23 July)

Event Time Altitude Azimuth Distance (km) Brightness Sun altitude
Rises 21:10:34 0° 325° (NW) 3,413 7.7 -15.5°
Reaches altitude 10° 21:13:17 10° 315° (NW) 2,475 6.4 -15.8°
Maximum altitude 21:18:08 30° 256° (WSW) 1,480 4.1 -16.2°
Enters shadow 21:22:24 12° 201° (SSW) 2,287 4.6 -16.5°
